Time,TemperatureF,DewpointF,PressureIn,WindDirection,WindDirectionDegrees,WindSpeedMPH,WindSpeedGustMPH,Humidity,HourlyPrecipIn,Conditions,Clouds,dailyrainin,SoftwareType,DateUTC
2013-05-01 00:07:00,46.2,43.5,30.15,North,0,0.0,0.0,90,0.00,,,-99.99,open3600,2013-04-30 22:07:00,
2013-05-01 00:23:00,46.2,43.5,30.16,NNE,22,0.0,0.0,90,0.00,,,-99.99,open3600,2013-04-30 22:23:00,
2013-05-01 00:39:00,46.0,43.3,30.16,NNE,22,0.0,0.0,90,0.00,,,-99.99,open3600,2013-04-30 22:39:00,
2013-05-01 00:54:00,46.0,43.3,30.16,NE,45,0.0,0.0,90,0.00,,,-99.99,open3600,2013-04-30 22:54:00,
2013-05-01 01:12:00,46.0,43.3,30.17,NNE,22,0.0,0.0,90,0.00,,,-99.99,open3600,2013-04-30 23:12:00,
2013-05-01 01:27:00,46.0,43.3,30.18,North,0,0.0,0.0,90,0.00,,,-99.99,open3600,2013-04-30 23:27:00,
2013-05-01 01:43:00,46.0,43.0,30.18,North,0,0.0,0.0,89,0.00,,,-99.99,open3600,2013-04-30 23:43:00,
2013-05-01 01:59:00,45.7,42.6,30.18,NNE,22,0.0,0.0,89,0.00,,,-99.99,open3600,2013-04-30 23:59:00,
2013-05-01 02:14:00,45.5,42.8,30.18,NNE,22,0.0,0.0,90,0.00,,,-99.99,open3600,2013-05-01 00:14:00,
2013-05-01 02:30:00,45.3,42.6,30.19,NNE,22,0.0,0.0,90,0.00,,,-99.99,open3600,2013-05-01 00:30:00,
2013-05-01 02:45:00,45.3,42.6,30.19,NNE,22,0.0,0.0,90,0.00,,,-99.99,open3600,2013-05-01 00:45:00,
2013-05-01 03:01:00,45.1,42.4,30.18,NNE,22,0.0,0.0,90,0.00,,,-99.99,open3600,2013-05-01 01:01:00,
2013-05-01 03:17:00,45.1,42.4,30.18,NNE,22,0.0,0.0,90,0.00,,,-99.99,open3600,2013-05-01 01:17:00,
2013-05-01 03:32:00,45.0,42.3,30.18,NNE,22,0.0,0.0,90,0.02,,,-99.99,open3600,2013-05-01 01:32:00,
2013-05-01 03:50:00,44.8,42.1,30.18,North,0,0.0,0.0,90,0.02,,,-99.99,open3600,2013-05-01 01:50:00,
2013-05-01 04:05:00,44.8,42.1,30.19,NNE,22,0.0,0.0,90,0.02,,,-99.99,open3600,2013-05-01 02:05:00,
2013-05-01 04:21:00,44.4,41.7,30.18,NNE,22,0.0,0.0,90,0.00,,,-99.99,open3600,2013-05-01 02:21:00,
2013-05-01 04:37:00,44.4,41.9,30.18,NE,45,0.0,0.0,91,0.00,,,-99.99,open3600,2013-05-01 02:37:00,
2013-05-01 04:53:00,44.2,41.7,30.19,NE,45,0.0,0.0,91,0.00,,,-99.99,open3600,2013-05-01 02:53:00,
2013-05-01 05:09:00,44.2,41.7,30.19,NE,45,0.0,0.0,91,0.00,,,-99.99,open3600,2013-05-01 03:09:00,
2013-05-01 05:24:00,44.2,41.7,30.19,NE,45,0.0,0.0,91,0.00,,,-99.99,open3600,2013-05-01 03:24:00,
2013-05-01 05:42:00,44.2,41.7,30.19,NE,45,0.0,0.0,91,0.00,,,-99.99,open3600,2013-05-01 03:42:00,
2013-05-01 05:58:00,44.2,41.7,30.20,NE,45,0.0,0.0,91,0.00,,,-99.99,open3600,2013-05-01 03:58:00,
2013-05-01 06:15:00,44.2,41.7,30.20,NE,45,0.0,0.0,91,0.00,,,-99.99,open3600,2013-05-01 04:15:00,
2013-05-01 06:30:00,44.2,41.7,30.20,NE,45,0.0,0.0,91,0.00,,,-99.99,open3600,2013-05-01 04:30:00,
2013-05-01 06:46:00,44.2,41.7,30.20,NE,45,0.0,0.0,91,0.00,,,-99.99,open3600,2013-05-01 04:46:00,
2013-05-01 07:01:00,44.2,41.7,30.21,NE,45,0.0,0.0,91,0.00,,,-99.99,open3600,2013-05-01 05:01:00,
2013-05-01 07:17:00,44.2,41.7,30.20,NE,45,0.0,0.0,91,0.00,,,-99.99,open3600,2013-05-01 05:17:00,
2013-05-01 07:32:00,44.4,41.9,30.21,NE,45,0.0,0.0,91,0.00,,,-99.99,open3600,2013-05-01 05:32:00,
2013-05-01 07:48:00,44.4,41.9,30.21,NE,45,0.0,0.0,91,0.00,,,-99.99,open3600,2013-05-01 05:48:00,
2013-05-01 08:04:00,44.8,42.3,30.21,NE,45,0.0,0.0,91,0.00,,,-99.99,open3600,2013-05-01 06:04:00,
2013-05-01 08:21:00,44.8,42.3,30.21,NE,45,0.0,0.0,91,0.00,,,-99.99,open3600,2013-05-01 06:21:00,
2013-05-01 08:36:00,45.1,42.6,30.21,NE,45,0.0,0.0,91,0.00,,,-99.99,open3600,2013-05-01 06:36:00,
2013-05-01 08:52:00,45.5,43.0,30.22,NE,45,0.0,0.0,91,0.00,,,-99.99,open3600,2013-05-01 06:52:00,
2013-05-01 09:08:00,45.9,43.3,30.21,NE,45,0.0,0.0,91,0.00,,,-99.99,open3600,2013-05-01 07:08:00,
2013-05-01 09:24:00,46.2,43.7,30.22,NE,45,0.0,0.0,91,0.00,,,-99.99,open3600,2013-05-01 07:24:00,
2013-05-01 09:39:00,46.4,43.9,30.22,NE,45,0.0,0.0,91,0.00,,,-99.99,open3600,2013-05-01 07:39:00,
2013-05-01 09:55:00,46.6,43.9,30.22,NE,45,0.0,0.0,90,0.00,,,-99.99,open3600,2013-05-01 07:55:00,
2013-05-01 10:10:00,46.6,43.9,30.22,NNE,22,0.0,0.0,90,0.00,,,-99.99,open3600,2013-05-01 08:10:00,
2013-05-01 10:26:00,46.6,43.9,30.22,NE,45,0.0,0.0,90,0.00,,,-99.99,open3600,2013-05-01 08:26:00,
2013-05-01 10:41:00,46.9,44.2,30.22,NE,45,0.0,0.0,90,0.00,,,-99.99,open3600,2013-05-01 08:41:00,
2013-05-01 10:57:00,47.1,44.1,30.22,NE,45,0.0,0.0,89,0.00,,,-99.99,open3600,2013-05-01 08:57:00,
2013-05-01 11:12:00,47.3,44.2,30.22,NE,45,0.0,0.0,89,0.00,,,-99.99,open3600,2013-05-01 09:12:00,
2013-05-01 11:28:00,47.7,44.6,30.22,NE,45,0.0,0.0,89,0.00,,,-99.99,open3600,2013-05-01 09:28:00,
2013-05-01 11:44:00,47.8,44.8,30.22,NE,45,0.0,0.0,89,0.00,,,-99.99,open3600,2013-05-01 09:44:00,
2013-05-01 11:59:00,48.4,45.0,30.22,NE,45,0.0,0.0,88,0.00,,,-99.99,open3600,2013-05-01 09:59:00,
2013-05-01 12:16:00,48.4,45.0,30.21,NE,45,0.0,0.0,88,0.00,,,-99.99,open3600,2013-05-01 10:16:00,
2013-05-01 12:32:00,48.4,45.0,30.21,NE,45,0.0,0.0,88,0.00,,,-99.99,open3600,2013-05-01 10:32:00,
2013-05-01 12:49:00,48.4,45.0,30.21,NE,45,0.0,0.0,88,0.00,,,-99.99,open3600,2013-05-01 10:49:00,
2013-05-01 13:05:00,48.7,45.3,30.20,NE,45,0.0,0.0,88,0.00,,,-99.99,open3600,2013-05-01 11:05:00,
2013-05-01 13:20:00,49.1,45.7,30.19,NE,45,0.0,0.0,88,0.00,,,-99.99,open3600,2013-05-01 11:20:00,
2013-05-01 13:36:00,49.6,46.2,30.19,NE,45,0.0,0.0,88,0.00,,,-99.99,open3600,2013-05-01 11:36:00,
2013-05-01 13:51:00,49.8,46.4,30.19,NE,45,0.0,0.0,88,0.00,,,-99.99,open3600,2013-05-01 11:51:00,
2013-05-01 14:07:00,49.8,46.4,30.19,NE,45,0.0,0.0,88,0.00,,,-99.99,open3600,2013-05-01 12:07:00,
2013-05-01 14:22:00,49.8,46.4,30.19,NE,45,0.0,0.0,88,0.00,,,-99.99,open3600,2013-05-01 12:22:00,
2013-05-01 14:38:00,50.5,47.1,30.19,NE,45,0.0,0.0,88,0.00,,,-99.99,open3600,2013-05-01 12:38:00,
2013-05-01 14:54:00,50.9,47.1,30.18,NE,45,0.0,0.0,87,0.00,,,-99.99,open3600,2013-05-01 12:54:00,
2013-05-01 15:09:00,50.9,47.1,30.17,NE,45,0.0,0.0,87,0.00,,,-99.99,open3600,2013-05-01 13:09:00,
2013-05-01 15:25:00,50.9,47.1,30.17,NE,45,0.0,0.0,87,0.00,,,-99.99,open3600,2013-05-01 13:25:00,
2013-05-01 15:40:00,51.1,47.7,30.16,NE,45,0.0,0.0,88,0.00,,,-99.99,open3600,2013-05-01 13:40:00,
2013-05-01 15:56:00,51.4,47.7,30.16,NE,45,0.0,0.0,87,0.00,,,-99.99,open3600,2013-05-01 13:56:00,
2013-05-01 16:11:00,51.4,47.7,30.16,NE,45,0.0,0.0,87,0.00,,,-99.99,open3600,2013-05-01 14:11:00,
2013-05-01 16:27:00,51.4,47.7,30.16,NE,45,0.0,0.0,87,0.00,,,-99.99,open3600,2013-05-01 14:27:00,
2013-05-01 16:43:00,51.8,48.0,30.15,NE,45,0.0,0.0,87,0.00,,,-99.99,open3600,2013-05-01 14:43:00,
2013-05-01 16:58:00,52.0,48.2,30.14,NE,45,0.0,0.0,87,0.00,,,-99.99,open3600,2013-05-01 14:58:00,
2013-05-01 17:14:00,52.3,48.6,30.14,NE,45,0.0,0.0,87,0.00,,,-99.99,open3600,2013-05-01 15:14:00,
2013-05-01 17:29:00,52.3,48.2,30.14,NE,45,0.0,0.0,86,0.00,,,-99.99,open3600,2013-05-01 15:29:00,
2013-05-01 17:45:00,52.3,48.2,30.14,NE,45,0.0,0.0,86,0.00,,,-99.99,open3600,2013-05-01 15:45:00,
2013-05-01 18:00:00,52.3,48.2,30.13,NE,45,0.0,0.0,86,0.00,,,-99.99,open3600,2013-05-01 16:00:00,
2013-05-01 18:16:00,52.3,48.2,30.12,NE,45,0.0,0.0,86,0.00,,,-99.99,open3600,2013-05-01 16:16:00,
2013-05-01 18:32:00,52.3,48.2,30.12,NE,45,0.0,0.0,86,0.00,,,-99.99,open3600,2013-05-01 16:32:00,
2013-05-01 18:47:00,52.5,48.7,30.12,NE,45,0.0,0.0,87,0.00,,,-99.99,open3600,2013-05-01 16:47:00,
2013-05-01 19:03:00,52.5,48.4,30.12,NE,45,0.0,0.0,86,0.00,,,-99.99,open3600,2013-05-01 17:03:00,
2013-05-01 19:18:00,52.7,48.6,30.12,NE,45,0.0,0.0,86,0.00,,,-99.99,open3600,2013-05-01 17:18:00,
2013-05-01 19:34:00,52.7,48.6,30.11,NE,45,0.0,0.0,86,0.00,,,-99.99,open3600,2013-05-01 17:34:00,
2013-05-01 19:49:00,52.5,48.4,30.12,NE,45,0.0,0.0,86,0.00,,,-99.99,open3600,2013-05-01 17:49:00,
2013-05-01 20:05:00,52.2,48.4,30.11,NE,45,0.0,0.0,87,0.00,,,-99.99,open3600,2013-05-01 18:05:00,
2013-05-01 20:23:00,51.6,47.8,30.11,NE,45,0.0,0.0,87,0.00,,,-99.99,open3600,2013-05-01 18:23:00,
2013-05-01 20:38:00,51.4,47.7,30.12,NE,45,0.0,0.0,87,0.00,,,-99.99,open3600,2013-05-01 18:38:00,
2013-05-01 21:11:00,50.4,46.6,30.12,NE,45,0.0,0.0,87,0.00,,,-99.99,open3600,2013-05-01 19:11:00,
2013-05-01 21:27:00,49.8,46.4,30.11,NE,45,0.0,0.0,88,0.00,,,-99.99,open3600,2013-05-01 19:27:00,
2013-05-01 21:43:00,49.6,46.2,30.11,NE,45,0.0,0.0,88,0.00,,,-99.99,open3600,2013-05-01 19:43:00,
2013-05-01 21:59:00,49.5,46.0,30.11,NE,45,0.0,0.0,88,0.00,,,-99.99,open3600,2013-05-01 19:59:00,
2013-05-01 22:15:00,49.5,46.4,30.11,NE,45,0.0,0.0,89,0.00,,,-99.99,open3600,2013-05-01 20:15:00,
2013-05-01 22:30:00,49.5,46.4,30.11,NE,45,0.0,0.0,89,0.00,,,-99.99,open3600,2013-05-01 20:30:00,
2013-05-01 22:46:00,49.3,46.2,30.10,NE,45,0.0,0.0,89,0.00,,,-99.99,open3600,2013-05-01 20:46:00,
2013-05-01 23:01:00,49.1,46.2,30.10,NE,45,0.0,0.0,90,0.00,,,-99.99,open3600,2013-05-01 21:01:00,
2013-05-01 23:17:00,49.1,46.2,30.11,NE,45,0.0,0.0,90,0.00,,,-99.99,open3600,2013-05-01 21:17:00,
2013-05-01 23:33:00,49.1,46.2,30.13,NW,315,0.0,0.0,90,0.00,,,-99.99,open3600,2013-05-01 21:33:00,
2013-05-01 23:48:00,49.1,46.2,30.14,SSW,202,0.0,0.0,90,0.00,,,-99.99,open3600,2013-05-01 21:48:00,